Waarnemingen

Advertentie
Mijn weer
Chivenor, Groot Brittannië (3707): temperatuur & dauwpunt: 19.04.2018 13:00:00 - 25.04.2018 13:00:00 (BST)Chivenor, Groot Brittannië (3707): temperatuur -20cm & temperatuur -100cm: 19.04.2018 13:00:00 - 25.04.2018 13:00:00 (BST)Chivenor, Groot Brittannië (3707): windsnelheid & windstoten: 19.04.2018 13:00:00 - 25.04.2018 13:00:00 (BST)Chivenor, Groot Brittannië (3707): windrichting: 19.04.2018 13:00:00 - 25.04.2018 13:00:00 (BST)Chivenor, Groot Brittannië (3707): luchtdruk: 19.04.2018 13:00:00 - 25.04.2018 13:00:00 (BST)Chivenor, Groot Brittannië (3707): zicht: 19.04.2018 13:00:00 - 25.04.2018 13:00:00 (BST)Chivenor, Groot Brittannië (3707): neerslag: 19.04.2018 13:00:00 - 25.04.2018 13:00:00 (BST)
Datum & Tijd tt [°C] td [°C] tt -20cm [°C] tt -100cm [°C] ff [km/u] ff [kn] fx [km/u] fx [kn] dd ppp [hPa] vv [km] rr [mm]
25.04.2018 13:00:00 12,9 8,7 - - 34 18 50 27 W 1014,5 23 0,0
25.04.2018 12:00:00 12,3 9,3 - - 37 20 50 27 W 1014,4 21 0,2
25.04.2018 11:00:00 8,2 5,9 - - 34 18 46 25 WNW 1014,6 4,9 0,8
25.04.2018 10:00:00 11,7 8,1 12,0 11,2 35 19 - - WZW 1014,3 23 0,0
25.04.2018 09:00:00 11,0 8,5 - - 28 15 - - W 1014,0 13 0,0
25.04.2018 08:00:00 10,1 8,4 - - 26 14 - - W 1013,7 17 0,0
25.04.2018 07:00:00 9,3 8,2 - - 22 12 - - W 1013,3 13 0,0
25.04.2018 06:00:00 9,0 8,0 - - 21 11 - - W 1013,0 13 0,0
25.04.2018 05:00:00 8,8 8,1 - - 18 10 - - W 1013,0 10 0,0
25.04.2018 04:00:00 8,8 8,0 - - 21 11 - - W 1012,5 9 0,0
25.04.2018 03:00:00 9,2 8,4 - - 21 11 - - W 1012,5 10 0,0
25.04.2018 02:00:00 9,4 8,8 - - 24 13 - - W 1012,5 10 0,0
25.04.2018 01:00:00 9,3 8,6 - - 21 11 - - W 1012,2 17 0,0
25.04.2018 00:00:00 9,7 9,2 - - 21 11 - - W 1012,4 17 0,0
24.04.2018 23:00:00 9,6 9,0 - - 18 10 - - W 1012,2 16 0,0
24.04.2018 22:00:00 9,4 8,7 - - 16 9 - - W 1011,8 28 0,0
24.04.2018 21:00:00 9,5 8,6 - - 24 13 46 25 WNW 1011,1 19 0,0
24.04.2018 20:00:00 10,4 9,9 - - 31 17 57 31 W 1010,2 12 0,6
24.04.2018 19:00:00 11,9 11,1 - - 46 25 67 36 WZW 1009,5 2,6 0,6
24.04.2018 18:00:00 12,5 11,4 - - 39 21 54 29 ZW 1009,7 6 2,0
24.04.2018 17:00:00 12,4 11,1 - - 35 19 55 30 ZW 1010,8 3,4 0,2
24.04.2018 16:00:00 12,9 11,6 - - 34 18 59 32 ZW 1011,4 21 0,0
24.04.2018 15:00:00 13,3 12,0 - - 35 19 52 28 ZW 1012,1 45 0,2
24.04.2018 14:00:00 12,8 12,1 - - 31 17 - - ZW 1012,6 3,3 0,2
24.04.2018 13:00:00 13,1 12,5 - - 21 11 - - ZW 1013,0 3,7 0,2
24.04.2018 12:00:00 12,9 11,9 - - 22 12 - - Z 1013,8 8 0,0
24.04.2018 11:00:00 12,5 9,5 - - 24 13 - - Z 1014,7 13 0,0
24.04.2018 10:00:00 12,7 10,4 12,4 11,2 11 6 - - Z 1015,4 50 0,0
24.04.2018 09:00:00 11,6 10,5 - - 11 6 - - Z 1016,1 35 0,0
24.04.2018 08:00:00 10,8 10,3 - - 4 2 - - WNW 1016,4 35 0,0
24.04.2018 07:00:00 10,6 10,2 - - 9 5 - - W 1016,9 13 0,0
24.04.2018 06:00:00 10,6 10,0 - - 16 9 - - WZW 1016,5 9 0,0
24.04.2018 05:00:00 10,6 9,9 - - 16 9 - - WZW 1016,5 13 0,0
24.04.2018 04:00:00 10,8 9,9 - - 18 10 - - W 1017,0 12 0,0
24.04.2018 03:00:00 10,7 9,8 - - 26 14 - - W 1016,9 16 0,0
24.04.2018 02:00:00 10,9 9,8 - - 26 14 - - W 1017,1 19 0,0
24.04.2018 01:00:00 11,1 10,2 - - 28 15 - - W 1017,3 18 0,0
24.04.2018 00:00:00 11,2 10,3 - - 29 16 - - WZW 1017,3 23 0,0
23.04.2018 23:00:00 11,1 10,3 - - 37 20 48 26 WZW 1017,3 19 0,0
23.04.2018 22:00:00 10,9 10,1 - - 37 20 55 30 WZW 1017,3 14 0,0
23.04.2018 21:00:00 10,9 9,5 - - 39 21 52 28 WZW 1017,3 27 0,0
23.04.2018 20:00:00 11,1 8,9 - - 31 17 48 26 WZW 1017,3 35 0,0
23.04.2018 19:00:00 11,5 8,2 - - 28 15 46 25 ZW 1017,3 17 0,0
23.04.2018 18:00:00 11,4 7,5 - - 31 17 - - WZW 1017,9 30 0,0
23.04.2018 17:00:00 12,2 6,9 - - 31 17 - - WZW 1018,0 35 0,0
23.04.2018 16:00:00 12,8 6,8 - - 31 17 46 25 WZW 1018,3 35 0,0
23.04.2018 15:00:00 13,2 7,2 - - 31 17 - - WZW 1018,7 27 0,0
23.04.2018 14:00:00 12,6 7,1 - - 34 18 - - WZW 1019,1 30 0,0
23.04.2018 13:00:00 12,1 7,9 - - 26 14 - - WZW 1019,1 45 0,0
23.04.2018 12:00:00 12,2 7,9 - - 24 13 - - W 1018,8 20 0,0
23.04.2018 11:00:00 12,2 7,3 - - 26 14 - - W 1018,5 35 0,0
23.04.2018 10:00:00 11,8 8,5 12,5 11,2 26 14 - - W 1018,3 35 0,0
23.04.2018 09:00:00 10,7 8,8 - - 21 11 - - W 1018,2 30 0,0
23.04.2018 08:00:00 10,0 8,8 - - 16 9 - - W 1017,2 14 0,0
23.04.2018 07:00:00 9,3 8,3 - - 16 9 - - W 1016,9 15 0,0
23.04.2018 06:00:00 9,6 8,3 - - 18 10 - - W 1016,6 15 0,0
23.04.2018 05:00:00 9,7 8,4 - - 18 10 - - W 1016,3 14 0,0
23.04.2018 04:00:00 9,5 8,5 - - 21 11 - - W 1016,1 16 0,0
23.04.2018 03:00:00 9,5 8,0 - - 21 11 - - W 1016,1 17 0,0
23.04.2018 02:00:00 10,0 8,4 - - 26 14 - - W 1015,8 16 0,0
23.04.2018 01:00:00 9,4 8,0 - - 22 12 - - W 1015,8 17 0,0
23.04.2018 00:00:00 9,7 8,1 - - 21 11 - - W 1015,4 20 0,0
22.04.2018 23:00:00 9,4 7,9 - - 21 11 - - W 1015,2 23 0,0
22.04.2018 22:00:00 9,8 8,1 - - 22 12 - - W 1014,6 20 0,0
22.04.2018 21:00:00 10,0 8,1 - - 22 12 - - WZW 1013,8 30 0,0
22.04.2018 20:00:00 10,8 7,9 - - 22 12 - - W 1013,3 35 0,0
22.04.2018 19:00:00 11,4 7,8 - - 24 13 - - W 1012,8 23 0,0
22.04.2018 18:00:00 12,3 8,3 - - 22 12 - - W 1012,4 40 0,0
22.04.2018 17:00:00 12,4 8,5 - - 22 12 - - W 1011,8 40 0,0
22.04.2018 16:00:00 12,0 9,4 - - 22 12 - - W 1011,7 50 0,0
22.04.2018 15:00:00 13,7 10,7 - - 26 14 - - W 1011,6 40 0,0
22.04.2018 14:00:00 12,3 11,3 - - 24 13 - - WZW 1011,4 13 0,0
22.04.2018 13:00:00 11,9 10,4 - - 16 9 - - W 1011,1 4,3 0,0
22.04.2018 12:00:00 13,7 8,3 - - 15 8 - - W 1010,7 45 0,0
22.04.2018 11:00:00 13,2 4,2 - - 13 7 - - WZW 1010,6 45 0,0
22.04.2018 10:00:00 12,0 7,6 13,0 11,0 4 2 - - ZO 1010,4 45 0,0
22.04.2018 09:00:00 10,7 9,1 - - 18 10 - - W 1010,7 20 0,0
22.04.2018 08:00:00 10,6 9,9 - - 5 3 - - NW 1010,3 4,8 0,0
22.04.2018 07:00:00 9,8 9,1 - - 5 3 - - O 1009,9 3,3 0,0
22.04.2018 06:00:00 9,6 8,9 - - 9 5 - - O 1009,4 2,6 0,0
22.04.2018 05:00:00 9,5 8,6 - - 5 3 - - O 1009,8 3,1 0,0
22.04.2018 04:00:00 10,4 8,9 - - 4 2 - - ZW 1010,4 4,2 0,0
22.04.2018 03:00:00 11,8 9,9 - - 9 5 - - Z 1010,7 6 0,0
22.04.2018 02:00:00 12,2 10,1 - - 18 10 - - OZO 1010,9 7 0,0
22.04.2018 01:00:00 12,3 10,0 - - 16 9 - - OZO 1011,7 7 0,0
22.04.2018 00:00:00 12,9 10,3 - - 16 9 - - OZO 1012,1 8 0,0
21.04.2018 23:00:00 13,5 10,4 - - 21 11 - - OZO 1012,6 11 0,0
21.04.2018 22:00:00 14,5 11,3 - - 8 4 - - ZO 1013,0 13 0,0
21.04.2018 21:00:00 15,5 11,6 - - 11 6 - - ZO 1012,4 15 0,0
21.04.2018 20:00:00 18,8 12,9 - - 21 11 - - ZZO 1012,6 18 0,0
21.04.2018 19:00:00 20,5 12,4 - - 26 14 - - ZZO 1012,9 40 0,0
21.04.2018 18:00:00 21,0 11,9 - - 26 14 52 28 ZO 1013,3 35 0,0
21.04.2018 17:00:00 22,6 12,9 - - 31 17 50 27 ZO 1014,0 50 0,0
21.04.2018 16:00:00 20,7 12,9 - - 22 12 - - OZO 1014,5 40 0,0
21.04.2018 15:00:00 23,1 14,7 - - 22 12 - - OZO 1015,8 30 0,0
21.04.2018 14:00:00 21,8 14,7 - - 18 10 - - OZO 1016,8 24 0,0
21.04.2018 13:00:00 19,0 13,3 - - 18 10 - - OZO 1017,8 21 0,0
21.04.2018 12:00:00 18,8 12,5 - - 22 12 - - OZO 1018,6 19 0,0
21.04.2018 11:00:00 18,2 13,4 - - 18 10 - - OZO 1019,2 23 0,0
21.04.2018 10:00:00 16,3 13,1 12,5 10,7 16 9 - - O 1019,5 15 0,0
21.04.2018 09:00:00 12,1 10,0 - - 11 6 - - ONO 1020,0 15 0,0
21.04.2018 08:00:00 8,2 7,6 - - 11 6 - - ONO 1020,6 30 0,0
21.04.2018 07:00:00 6,7 6,5 - - 13 7 - - O 1021,0 14 0,0
21.04.2018 06:00:00 6,0 5,8 - - 11 6 - - O 1021,2 14 0,0
21.04.2018 05:00:00 6,2 6,0 - - 9 5 - - O 1021,6 13 0,0
21.04.2018 04:00:00 6,1 6,0 - - 9 5 - - O 1022,2 11 0,0
21.04.2018 03:00:00 6,5 6,4 - - 9 5 - - O 1022,6 4,2 0,0
21.04.2018 02:00:00 7,0 6,9 - - 9 5 - - O 1023,0 0,1 0,0
21.04.2018 01:00:00 6,8 6,6 - - 5 3 - - O 1023,8 0,1 0,0
21.04.2018 00:00:00 6,7 6,6 - - 4 2 - - O 1023,9 0,3 0,0
20.04.2018 23:00:00 7,1 6,9 - - 2 1 - - NNW 1024,4 0,2 0,0
20.04.2018 22:00:00 7,4 7,1 - - 2 1 - - W 1024,8 0,2 0,0
20.04.2018 21:00:00 7,4 7,1 - - 8 4 - - WNW 1024,8 0,2 0,0
20.04.2018 20:00:00 7,9 7,3 - - 13 7 - - W 1024,6 0,7 0,0
20.04.2018 19:00:00 8,7 7,8 - - 13 7 - - W 1024,6 17 0,0
20.04.2018 18:00:00 9,7 8,3 - - 15 8 - - W 1024,7 19 0,0
20.04.2018 17:00:00 10,5 8,7 - - 16 9 - - W 1025,0 24 0,0
20.04.2018 16:00:00 11,2 9,0 - - 15 8 - - W 1025,3 35 0,0
20.04.2018 15:00:00 10,7 8,7 - - 15 8 - - W 1025,8 30 0,0
20.04.2018 14:00:00 10,0 8,0 - - 15 8 - - W 1026,2 30 0,0
20.04.2018 13:00:00 9,6 8,3 - - 13 7 - - W 1026,4 35 0,0
20.04.2018 12:00:00 8,7 7,9 - - 13 7 - - W 1026,7 8 0,0
20.04.2018 11:00:00 8,8 8,5 - - 11 6 - - W 1026,6 14 0,0
20.04.2018 10:00:00 8,1 8,0 12,7 10,7 9 5 - - WZW 1026,2 1,3 0,0
20.04.2018 09:00:00 8,4 8,2 - - 9 5 - - WZW 1026,0 0,2 0,0
20.04.2018 08:00:00 8,6 8,4 - - 8 4 - - WNW 1025,7 0,3 0,0
20.04.2018 07:00:00 8,8 8,5 - - 9 5 - - WNW 1025,5 1,0 0,0
20.04.2018 06:00:00 9,4 9,0 - - 5 3 - - WNW 1025,2 6 0,0
20.04.2018 05:00:00 9,5 9,1 - - 5 3 - - W 1025,2 6 0,0
20.04.2018 04:00:00 9,6 9,2 - - 4 2 - - W 1025,1 7 0,0
20.04.2018 03:00:00 9,2 8,7 - - 8 4 - - W 1025,1 7 0,0
20.04.2018 02:00:00 9,9 9,1 - - 9 5 - - WNW 1025,3 10 0,0
20.04.2018 01:00:00 10,3 9,6 - - 11 6 - - NW 1025,3 16 0,0
20.04.2018 00:00:00 10,4 9,5 - - 13 7 - - NW 1025,3 26 0,0
19.04.2018 23:00:00 10,8 9,8 - - 8 4 - - NW 1025,5 18 0,0
19.04.2018 22:00:00 11,0 10,0 - - 4 2 - - N 1025,7 23 0,0
19.04.2018 21:00:00 11,5 10,1 - - 8 4 - - NW 1025,3 50 0,0
19.04.2018 20:00:00 12,0 10,2 - - 13 7 - - NW 1025,0 50 0,0
19.04.2018 19:00:00 12,9 10,7 - - 13 7 - - NW 1025,0 45 0,0
19.04.2018 18:00:00 13,4 10,6 - - 13 7 - - WNW 1025,2 50 0,0
19.04.2018 17:00:00 14,5 11,6 - - 16 9 - - WNW 1024,9 40 0,0
19.04.2018 16:00:00 14,8 11,8 - - 16 9 - - W 1025,0 30 0,0
19.04.2018 15:00:00 15,2 12,0 - - 15 8 - - W 1025,2 45 0,0
19.04.2018 14:00:00 13,7 11,5 - - 9 5 - - WNW 1025,3 15 0,0
19.04.2018 13:00:00 13,1 10,9 - - 13 7 - - WNW 1025,0 23 0,0

tt = temperatuur
td = dauwpunt
tt -20cm = temperatuur -20cm
tt -100cm = temperatuur -100cm
ff = windsnelheid
fx = windstoten
dd = windrichting
ppp = luchtdruk
vv = zicht
rr = neerslag

Weerstations in de omgeving